Wind_Speed
84 85 85 84 83 82 80 78 76 74 73 72 71 69 67 66 64 63 61 60 59 59 58 57 57 56 55 54 53 52 51 51 50 49 48 48 47 46 45 45 44 44 44 43 43 43 43 44 44 44 44 44 43 43 42 42 41 40 40 39 38 37 35 34 32 30 27 24 21 19 17 17 19 23 27 31 36 40 44 47 50 53 55 56 58 59
84 84 84 83 82 80 78 76 74 73 72 71 70 68 66 65 64 62 61 60 59 58 57 57 56 55 55 54 53 52 51 51 50 49 48 48 47 46 45 45 44 44 43 43 43 43 43 43 43 43 44 44 43 43 42 42 41 40 39 38 37 36 35 33 31 29 27 25 22 20 19 19 20 23 27 31 35 39 43 46 50 52 54 56 57 59
84 84 84 82 80 78 76 75 74 72 71 70 69 67 66 64 63 62 60 59 58 58 57 56 56 55 54 54 53 52 51 51 50 49 48 48 47 46 46 45 45 44 44 43 43 42 42 42 43 43 43 43 43 43 43 42 41 40 39 38 37 36 35 33 31 29 28 26 24 22 21 21 21 23 26 30 34 38 41 45 48 51 53 55 57 58
83 83 82 81 79 77 75 74 73 71 70 69 68 67 65 64 62 61 60 59 58 57 57 56 55 55 54 53 52 52 51 50 50 49 49 48 47 47 46 46 45 44 44 43 43 43 42 42 42 42 43 43 43 43 43 42 42 40 39 38 37 36 35 33 32 30 28 27 25 24 23 22 23 24 26 29 33 36 40 43 47 49 52 54 56 58
83 82 81 79 77 75 74 73 72 71 70 68 67 66 65 63 62 61 60 59 58 57 56 56 55 54 54 53 52 52 51 50 50 49 49 48 48 47 47 46 46 45 45 44 44 43 43 43 42 42 43 43 43 43 43 43 42 41 40 39 38 37 35 34 33 31 29 28 26 25 25 24 25 25 27 29 32 35 39 42 45 48 51 53 55 57
82 81 79 77 75 74 73 72 71 70 69 68 67 65 64 63 62 61 60 59 58 57 56 56 55 54 54 53 52 52 51 51 50 49 49 49 48 48 47 47 47 46 46 45 45 45 44 44 43 43 43 43 43 43 44 43 43 42 41 40 39 38 36 35 34 32 31 29 28 27 26 26 26 27 28 29 32 34 38 41 44 47 50 52 54 56
82 80 78 76 74 73 72 71 70 69 68 67 66 65 64 63 62 61 60 59 58 57 56 56 55 54 54 53 53 52 52 51 50 50 49 49 49 48 48 48 48 47 47 47 46 46 45 45 44 44 44 43 43 43 43 43 43 43 42 42 40 39 38 36 35 34 33 31 30 29 29 28 28 28 29 30 32 34 37 40 43 46 49 52 54 55
80 78 76 74 73 72 71 70 69 68 67 66 65 64 64 63 61 61 60 59 58 57 56 56 55 55 54 54 53 52 52 51 51 51 50 50 49 49 49 49 49 48 48 48 48 47 47 46 46 45 45 44 44 44 44 43 43 43 43 43 42 41 40 38 37 36 34 33 33 32 31 31 30 30 31 32 33 34 37 39 42 45 48 51 53 55
78 76 74 73 72 71 71 70 69 68 67 66 65 64 63 62 62 61 60 59 58 57 57 56 56 55 55 54 53 53 52 52 51 51 51 50 50 50 50 50 50 49 49 49 49 48 48 47 47 46 46 45 45 45 44 44 44 44 43 43 43 42 41 40 39 38 37 36 35 34 33 33 33 33 33 33 34 35 37 39 41 44 47 49 52 54
77 74 73 72 71 70 70 69 69 67 66 65 64 63 62 62 61 61 60 59 59 58 57 56 56 55 55 54 54 53 53 53 52 52 51 51 51 51 50 50 50 50 50 50 50 50 49 49 48 48 47 46 46 46 45 45 45 44 44 44 44 43 43 42 42 40 39 38 37 36 36 35 35 35 36 36 36 37 38 39 41 43 46 48 50 53
75 73 72 71 70 70 69 68 68 67 66 65 64 63 62 61 60 60 60 60 59 58 57 57 56 56 55 55 55 54 54 53 53 53 52 52 51 51 51 51 51 51 51 51 51 51 50 50 49 49 48 48 47 47 46 46 46 46 45 45 45 44 44 44 43 43 42 41 40 39 38 38 38 38 38 38 39 39 40 41 42 43 45 47 49 51
74 72 71 71 70 69 69 68 67 67 66 65 64 63 62 61 60 59 59 59 59 59 58 57 57 56 56 55 55 55 54 54 54 54 53 53 52 52 52 52 52 52 52 52 52 52 51 51 50 50 49 49 48 48 48 47 47 47 47 46 46 46 45 45 45 44 44 43 43 42 41 41 40 40 40 40 41 42 42 43 44 45 46 47 49 51
73 72 71 70 70 69 68 68 67 67 66 65 64 63 63 62 61 60 59 59 59 59 58 58 58 57 56 56 56 55 55 55 55 54 54 54 53 53 53 53 53 53 53 53 53 52 52 52 52 51 50 50 49 49 49 49 49 48 48 48 48 47 47 46 46 45 45 45 44 44 44 43 43 43 43 43 43 44 44 45 46 47 47 48 49 51
72 71 71 70 70 69 68 68 67 66 66 65 64 63 63 62 61 60 60 59 59 59 58 58 58 58 57 57 56 56 56 56 56 55 55 54 54 54 54 54 54 54 54 54 54 53 53 53 53 52 52 51 51 50 50 50 50 50 50 50 49 49 48 48 47 47 46 46 46 46 45 46 45 45 45 45 45 46 46 47 48 49 50 50 51 52
71 71 71 71 70 69 68 68 67 67 66 65 65 64 64 63 62 61 61 60 60 59 59 59 58 58 58 57 57 56 56 56 56 56 56 55 55 54 54 54 55 54 54 54 54 54 54 54 54 53 53 52 52 52 51 51 51 51 51 51 51 50 50 49 49 48 48 47 47 47 47 47 47 47 48 48 48 48 49 49 50 51 52 53 53 54
71 71 71 71 70 70 69 68 67 67 66 66 65 65 64 64 63 62 61 61 61 60 59 59 59 59 59 58 57 57 57 57 57 57 57 56 56 55 55 55 55 55 55 55 55 55 55 55 55 55 54 54 53 53 53 53 53 53 53 53 52 52 52 51 50 50 49 49 48 48 48 48 48 49 49 50 50 51 51 52 52 53 54 55 56 56
71 70 71 71 71 70 69 69 68 67 67 66 66 65 65 65 64 63 63 62 61 61 60 60 60 60 60 59 58 58 57 57 57 57 57 57 57 56 56 56 56 56 56 56 56 56 56 56 56 56 55 55 55 54 54 54 54 54 54 54 54 54 53 53 52 52 51 51 50 50 50 49 50 50 50 51 52 52 53 54 55 55 56 57 58 58
70 70 71 71 71 71 70 69 69 68 67 67 67 66 66 66 65 64 63 63 62 62 61 61 60 60 60 60 60 59 58 58 58 58 58 58 57 57 56 56 57 57 57 57 57 57 57 57 57 57 57 56 56 56 56 56 56 56 56 56 56 55 55 55 54 54 53 53 52 52 52 51 51 51 52 52 53 54 54 55 56 57 58 59 60 60
70 70 71 71 71 71 71 70 70 69 68 68 67 67 67 67 66 65 65 64 63 62 62 61 61 61 60 60 60 59 59 59 59 59 59 59 58 57 57 57 57 58 58 58 58 58 58 58 58 58 58 58 58 57 58 58 58 58 58 58 57 57 57 56 56 55 55 54 54 54 53 53 53 53 53 54 54 55 55 56 57 58 59 60 61 62
70 70 71 71 71 72 72 71 71 70 69 69 69 68 68 67 67 66 66 65 64 63 62 62 61 61 61 61 60 60 60 59 60 60 59 59 59 58 58 58 58 58 59 59 59 59 59 60 60 60 59 59 59 59 59 59 59 59 60 59 59 59 59 58 58 57 57 56 56 56 55 55 55 55 55 55 55 56 56 57 58 59 60 62 63 64
70 71 71 71 71 72 72 72 72 71 71 70 70 69 69 68 68 67 67 66 65 64 63 62 62 61 61 61 61 61 60 60 60 60 60 60 60 59 58 58 59 59 60 60 60 60 60 61 61 61 60 60 60 61 61 61 61 61 61 61 61 61 60 60 59 59 59 58 58 58 57 57 57 57 56 56 56 57 57 58 59 60 61 62 63 65
70 71 71 71 71 72 72 73 73 72 72 72 71 71 70 70 69 69 68 67 66 65 64 63 62 62 61 61 61 61 60 60 61 61 61 61 61 60 59 59 59 60 60 60 60 61 61 61 62 62 62 62 62 62 62 62 62 63 63 63 62 62 62 61 61 61 60 60 60 59 59 59 58 58 58 57 57 57 58 58 59 60 61 62 64 65
70 71 71 72 72 72 73 73 73 73 73 73 72 72 72 71 71 70 69 68 67 65 64 63 62 62 61 61 61 61 61 61 61 61 61 61 61 61 60 60 60 61 61 61 61 61 62 62 62 62 63 63 63 63 63 64 64 64 64 64 64 63 63 63 62 62 62 62 61 61 61 60 60 60 59 59 58 58 58 58 59 60 61 62 64 65
70 71 71 72 73 73 73 74 74 74 74 74 73 73 73 72 71 71 70 68 67 66 65 63 62 62 61 61 61 61 61 61 61 61 62 62 62 62 61 61 61 62 62 62 62 62 63 63 63 63 63 64 64 64 64 65 65 65 65 65 65 64 64 64 64 63 63 63 63 63 62 62 61 61 60 59 59 58 58 58 59 59 60 62 63 64
71 71 72 73 73 74 74 74 75 75 75 75 75 74 74 73 72 71 70 69 67 66 65 64 63 62 61 61 61 61 61 61 61 61 62 62 63 63 62 62 62 63 63 63 63 63 63 64 64 64 64 65 65 65 66 66 66 66 66 66 66 65 65 65 65 65 64 64 64 64 63 63 62 61 61 60 59 59 58 58 58 58 59 60 62 63
71 72 73 73 74 74 75 75 75 76 76 76 75 75 75 74 74 72 71 69 68 66 65 64 63 62 61 61 61 61 61 61 61 61 62 62 63 63 63 63 63 63 64 64 64 64 64 65 65 65 65 66 66 67 67 67 67 67 67 67 67 66 66 66 66 66 65 65 65 64 64 63 62 62 61 60 59 58 58 57 57 58 58 59 60 61
72 73 74 74 75 75 76 76 77 77 76 76 76 76 76 75 74 73 72 70 68 66 65 64 63 62 61 61 61 61 61 61 61 61 61 62 63 64 64 63 64 64 65 65 65 64 65 65 66 66 67 67 67 68 68 68 68 68 68 68 68 67 67 67 67 67 66 66 65 65 64 63 62 61 60 59 59 58 57 57 57 57 57 58 59 60
73 74 75 75 76 77 77 77 78 78 78 77 77 77 76 75 75 74 72 69 67 66 64 63 62 62 61 61 61 60 61 61 61 61 61 62 63 64 64 64 64 64 65 65 65 65 65 66 66 67 67 68 68 69 69 69 69 69 69 69 69 68 68 68 68 67 67 66 66 65 64 63 62 60 59 58 58 57 57 56 56 56 57 57 58 59
74 75 76 76 77 78 78 78 78 78 78 78 78 77 76 75 74 73 71 68 67 65 64 63 62 61 61 60 60 60 60 61 61 61 62 63 64 64 64 64 64 65 65 66 66 66 66 66 67 67 68 69 69 70 70 70 70 70 70 70 69 69 69 69 68 68 67 66 65 64 63 61 60 59 58 57 57 56 56 56 56 56 56 57 57 58
75 76 77 77 78 78 79 79 79 79 79 79 78 77 76 75 73 72 70 68 66 65 63 62 61 60 60 60 60 60 61 61 61 61 62 63 64 65 64 65 65 65 66 66 67 68 68 68 68 68 68 69 69 70 70 70 71 71 71 70 70 70 69 69 68 67 66 65 64 63 61 60 59 58 57 56 56 55 55 55 55 55 56 56 57 57
76 77 78 78 79 79 80 80 80 80 79 79 78 77 76 74 72 70 68 67 65 64 63 62 61 60 60 60 60 61 61 61 61 61 62 63 64 65 65 65 66 66 66 67 68 69 69 69 69 69 69 69 70 70 70 70 71 71 71 71 71 70 70 69 68 67 65 64 62 61 59 58 57 56 55 55 55 55 55 55 55 55 56 56 57 57
77 78 79 79 80 80 80 80 80 80 79 79 77 76 74 72 71 69 67 65 64 63 62 61 61 60 60 60 60 61 62 62 62 62 63 64 65 65 65 66 66 67 67 67 68 69 70 70 70 70 70 70 70 70 70 70 70 71 71 71 71 70 69 68 67 65 63 62 60 58 57 56 55 55 55 54 54 55 55 55 55 55 55 56 56 57
78 79 80 80 80 81 81 81 80 80 79 78 76 75 73 71 69 67 66 64 63 62 62 61 61 60 60 60 61 61 62 63 63 63 64 64 65 66 66 66 67 68 68 68 69 69 70 71 71 71 71 71 71 70 70 70 70 70 70 71 71 70 69 67 65 63 61 59 58 56 55 54 54 54 54 54 54 54 55 55 55 55 55 56 56 56
79 80 80 81 81 81 81 81 81 80 79 77 75 73 71 69 68 66 65 64 63 62 61 61 61 61 61 61 62 62 63 63 63 64 64 65 66 67 67 67 68 68 69 69 70 70 71 71 72 72 72 72 71 71 71 70 70 70 70 69 69 68 67 65 63 61 59 57 56 55 54 53 53 53 53 54 54 54 55 55 55 55 55 55 56 56
80 80 81 81 82 82 82 81 80 79 78 76 74 72 70 68 67 65 64 63 62 62 61 61 61 61 61 62 63 63 64 64 64 65 65 66 67 67 68 68 69 69 70 70 71 71 72 72 72 72 73 73 73 72 71 71 70 70 69 68 67 66 64 63 61 59 58 56 55 54 53 53 53 53 53 54 54 54 55 55 55 55 55 55 55 56
80 81 81 81 82 82 81 80 79 78 76 74 72 70 69 67 66 65 64 63 63 62 62 62 62 62 62 63 63 64 65 65 65 66 66 67 67 68 69 69 69 70 71 71 72 72 72 73 73 73 73 73 73 73 71 70 69 68 67 66 64 63 61 60 58 57 56 55 54 53 53 53 53 53 53 54 54 54 55 54 54 54 55 55 55 56
81 81 81 81 81 81 80 79 78 76 74 73 71 69 68 66 65 65 64 63 63 63 63 63 63 63 63 64 64 65 66 66 66 67 67 68 68 69 70 70 70 71 71 72 72 73 73 73 74 73 73 73 73 73 72 70 68 67 65 63 61 60 58 57 56 55 55 54 54 54 54 53 54 54 54 54 54 54 54 54 54 54 54 54 55 55
81 81 81 81 81 80 79 78 76 74 72 71 69 68 67 66 65 65 64 64 64 64 64 64 64 64 65 65 65 66 66 67 67 68 68 68 69 70 70 71 71 71 72 72 73 73 73 74 74 74 74 73 73 72 71 69 67 65 63 61 59 57 56 54 54 53 54 54 54 54 54 54 54 54 54 54 54 54 54 54 53 53 54 54 54 53
81 81 81 80 80 79 77 76 74 72 71 69 68 67 66 66 65 65 65 65 65 65 65 65 65 66 66 66 67 67 67 68 68 68 69 69 70 70 71 71 72 72 72 73 73 73 73 74 74 74 74 73 72 71 69 67 65 63 61 58 56 55 53 52 52 52 53 53 54 54 55 55 55 55 55 55 54 54 54 53 53 53 53 52 52 51
81 81 80 79 78 77 75 73 72 70 69 68 67 67 66 66 66 66 65 65 66 66 66 66 66 67 67 67 68 68 68 69 69 69 70 70 70 71 71 72 72 73 73 73 73 73 73 73 73 73 72 72 71 69 67 64 62 60 58 56 55 53 52 51 51 51 52 53 53 54 55 55 55 55 55 55 55 54 53 53 52 52 51 50 49 48
81 80 79 78 76 75 73 71 70 69 68 68 67 67 67 67 67 67 67 67 67 67 67 67 67 68 68 68 68 69 69 69 70 70 70 71 71 71 71 72 72 73 73 73 73 73 73 73 72 72 70 69 68 66 64 61 59 57 56 55 54 53 52 51 51 51 51 52 53 54 54 55 55 56 56 55 55 54 53 52 51 50 49 47 46 45
80 79 78 76 74 73 71 70 69 69 68 68 68 68 68 68 68 68 68 68 68 68 68 68 68 69 69 69 69 69 69 70 70 70 71 71 71 72 72 72 73 73 73 73 73 73 72 71 71 70 68 66 65 63 61 59 57 55 54 53 53 53 52 51 51 51 51 52 52 53 54 54 55 55 56 55 55 54 52 51 50 48 46 44 43 42
78 77 76 74 73 71 70 69 69 69 69 68 68 69 69 68 68 69 69 69 69 69 69 69 69 69 70 70 70 70 70 70 70 71 71 72 72 72 73 73 73 73 73 73 73 72 71 70 68 67 65 63 62 60 59 57 55 54 53 53 52 52 52 51 51 50 51 51 52 52 53 54 55 55 55 55 54 53 52 50 48 46 43 42 40 40
76 75 74 72 71 70 70 69 69 69 69 69 69 69 69 69 69 69 69 70 70 70 69 69 69 70 70 70 70 71 71 71 71 71 72 72 72 73 73 73 73 73 72 72 72 71 69 68 66 64 62 61 59 58 57 55 54 54 53 52 52 52 52 51 51 50 50 51 51 52 52 53 54 54 54 54 53 52 50 48 45 43 41 39 38 38
74 73 72 71 70 70 70 70 70 70 70 70 70 70 70 70 70 70 70 70 70 70 70 70 70 70 70 70 71 71 71 72 72 72 73 73 73 73 73 73 73 72 71 71 70 69 67 66 64 62 60 58 57 56 55 55 54 53 53 52 51 51 51 51 50 50 50 50 51 51 51 52 53 53 53 53 51 50 48 45 43 40 38 37 37 37
72 72 71 70 70 70 70 70 71 71 71 71 71 71 70 70 70 70 70 70 70 70 70 70 70 70 70 71 71 71 72 72 73 73 73 73 73 73 73 72 72 71 70 69 68 66 64 63 61 60 59 57 56 55 55 54 54 53 53 52 51 51 50 50 50 50 50 50 50 51 51 51 51 52 51 50 49 47 45 42 40 38 37 36 36 36
71 71 70 70 70 71 71 71 71 71 71 71 71 71 70 70 70 70 70 70 70 70 70 70 70 70 71 71 71 72 73 73 74 74 74 74 73 73 72 71 70 69 68 67 65 63 62 60 59 58 58 57 56 55 54 54 53 53 52 51 51 50 50 50 49 49 49 50 50 50 50 50 50 50 49 48 46 44 42 39 37 36 35 35 35 36
70 70 70 70 70 71 71 71 71 71 71 71 71 70 70 70 70 70 70 69 69 70 70 70 70 71 71 71 72 72 73 73 74 74 74 74 73 72 71 70 68 67 65 63 62 61 60 59 58 57 57 56 56 56 55 54 53 52 51 51 50 49 49 49 49 49 49 49 49 50 49 49 49 48 47 45 44 41 39 37 35 34 34 34 34 35
70 70 70 70 70 70 70 70 70 70 70 70 70 70 70 69 69 69 69 69 70 70 70 71 71 71 72 72 72 73 73 73 74 74 73 73 72 71 69 68 66 64 62 61 60 59 58 58 57 56 56 56 56 55 55 54 53 51 50 50 49 49 49 48 48 48 48 48 49 48 48 48 47 46 44 43 41 38 36 34 33 32 32 33 33 34
70 70 70 70 70 70 70 70 69 69 69 69 69 69 69 69 69 69 69 70 70 70 71 71 71 72 72 73 73 73 73 73 73 73 72 71 70 68 67 65 63 61 60 58 57 57 57 57 57 56 55 55 55 54 54 53 52 51 49 49 48 48 48 48 48 48 48 48 47 47 46 45 44 43 42 40 38 36 34 33 32 31 31 32 33 33
69 69 69 69 69 69 69 69 69 69 69 69 69 69 69 69 70 70 70 70 71 71 71 72 72 72 72 73 73 73 73 73 72 72 70 69 67 65 64 61 60 58 57 57 56 56 56 57 57 57 56 54 53 53 53 52 51 50 49 48 47 47 47 47 48 48 47 47 46 45 44 43 42 40 39 37 35 34 32 31 30 30 30 31 32 33
Wind_Direction
305 306 307 309 309 310 310 310 310 310 310 310 310 310 310 309 309 309 308 308 308 309 309 309 310 310 310 311 311 311 311 311 311 311 311 311 311 311 311 311 311 311 312 312 313 313 314 314 314 314 314 315 315 315 316 316 317 317 318 319 319 320 321 322 323 323 323 321 317 309 295 278 260 247 238 232 228 225 223 222 221 221 222 223 224 226
305 306 308 309 309 310 310 310 310 310 310 310 310 310 309 309 308 308 308 308 308 308 308 309 309 310 310 310 310 311 311 311 311 311 311 311 311 311 311 311 311 312 312 312 313 313 314 314 314 314 314 314 315 315 315 316 316 317 317 318 318 319 320 320 320 320 319 317 312 304 294 281 268 255 246 240 235 232 230 228 227 226 226 227 227 228
306 307 308 309 309 309 310 310 310 310 310 310 310 310 309 308 308 307 307 307 307 307 308 308 308 309 309 310 310 310 310 311 311 311 311 311 311 311 311 311 311 312 312 312 313 313 313 314 314 314 314 314 315 315 315 316 316 316 317 317 317 317 317 317 317 316 315 313 309 302 293 283 273 262 254 247 242 239 237 235 233 232 231 230 230 230
306 307 308 309 309 309 309 310 310 310 310 310 310 310 309 308 307 307 306 306 306 306 307 307 307 308 308 308 309 309 309 310 310 310 310 310 310 311 311 311 311 311 311 312 312 312 313 313 313 314 314 314 315 315 315 315 316 316 316 316 316 316 315 315 314 313 311 308 305 300 293 284 276 267 260 254 249 245 242 240 239 237 236 235 234 234
306 308 308 309 309 309 309 310 310 311 311 310 310 309 308 308 307 306 306 305 305 305 306 306 306 307 307 307 308 308 308 309 309 309 309 310 310 310 310 310 310 311 311 311 311 312 312 312 313 313 314 314 314 315 315 315 316 315 315 315 315 314 313 312 311 309 307 305 301 297 292 286 279 271 265 259 254 249 246 244 243 242 241 240 239 238
306 307 308 308 308 309 309 310 310 311 311 310 310 309 308 307 306 306 305 305 305 305 305 305 305 306 306 306 307 307 307 308 308 308 308 309 309 309 310 310 310 310 310 310 311 311 311 312 312 313 313 313 314 314 315 315 315 315 315 314 313 312 311 310 308 306 304 301 298 294 290 285 280 274 268 263 258 254 250 247 246 245 244 243 243 242
306 307 307 308 308 309 309 310 310 311 311 310 310 309 308 307 306 305 305 304 304 304 304 304 304 305 305 305 306 306 307 307 307 307 308 308 308 309 309 309 309 309 310 310 310 310 311 311 311 312 312 313 313 313 314 314 314 314 314 313 312 311 309 308 306 304 301 299 295 292 288 284 280 275 271 266 261 257 253 250 248 247 246 246 245 245
306 307 307 307 308 309 309 310 310 311 311 310 310 309 308 307 306 305 304 304 303 303 303 303 303 304 304 304 305 305 306 306 306 307 307 307 308 308 308 308 308 309 309 309 309 310 310 310 310 311 311 311 312 312 313 313 313 313 313 312 311 310 308 306 304 302 299 297 294 290 287 283 280 276 272 268 263 259 256 253 250 249 247 247 246 246
305 306 306 307 308 309 309 310 310 310 311 310 310 309 308 307 306 305 304 303 303 303 303 303 303 303 303 303 304 304 304 305 305 305 306 306 306 307 307 307 308 308 308 308 308 309 309 309 309 310 310 310 311 311 311 312 312 312 311 311 310 309 307 305 303 301 299 296 293 289 286 283 280 276 273 269 266 262 258 255 252 250 249 248 247 247
305 305 306 307 307 308 309 310 310 310 310 310 310 309 308 306 305 304 304 303 302 302 302 302 302 302 302 303 303 303 303 303 304 304 304 305 305 306 306 306 306 307 307 307 307 308 308 308 308 309 309 309 310 310 310 311 311 310 310 310 308 307 306 304 303 301 298 296 293 290 286 283 280 277 274 270 267 264 261 258 255 253 251 249 248 247
304 305 306 306 307 308 309 310 310 310 310 310 310 309 308 306 305 304 303 303 302 302 302 302 302 302 302 302 302 302 302 302 303 303 303 304 304 304 305 305 305 305 306 306 306 307 307 307 307 308 308 308 309 309 309 310 310 309 309 308 307 306 305 304 302 300 298 296 293 290 287 284 281 277 274 271 268 266 263 260 258 255 253 251 250 249
304 304 305 306 307 308 309 309 310 310 310 310 310 310 308 307 305 304 303 302 302 302 302 302 302 301 301 302 302 302 302 302 302 302 302 303 303 303 303 304 304 304 305 305 305 305 306 306 306 307 307 307 308 308 308 309 309 308 308 307 306 305 304 303 301 300 298 296 294 291 288 285 282 279 275 272 270 267 265 262 260 258 256 254 252 251
303 304 305 306 307 308 309 309 310 310 310 311 311 310 309 308 306 305 303 302 302 302 302 302 302 302 301 301 301 302 302 301 301 301 301 302 302 302 302 303 303 303 304 304 304 304 305 305 305 306 306 306 307 307 307 307 307 307 307 306 305 304 303 302 300 299 297 296 294 292 289 287 284 281 277 274 271 268 266 263 261 259 258 256 254 253
303 304 305 306 307 307 308 309 310 310 311 311 311 310 310 309 307 306 304 302 301 301 301 302 302 302 302 301 301 301 301 301 301 301 301 301 301 302 302 302 302 302 303 303 303 303 303 304 304 304 305 305 306 306 306 306 306 306 306 305 305 304 302 301 300 298 296 295 293 291 289 287 285 282 279 276 273 270 267 265 263 261 259 257 256 255
303 304 305 306 306 307 308 309 310 310 311 311 311 311 310 310 308 307 305 303 302 301 301 301 301 301 301 301 301 301 301 301 301 301 301 301 301 301 301 301 301 301 302 302 302 302 302 303 303 303 304 304 305 305 305 305 305 305 305 304 304 303 302 300 299 298 296 294 292 291 289 287 285 283 281 278 275 273 270 267 264 262 260 259 257 256
303 304 305 306 306 307 308 309 310 310 311 311 311 311 311 310 309 308 306 304 303 301 301 301 301 301 301 301 301 301 301 301 301 301 301 301 301 301 301 301 301 301 301 301 301 301 302 302 302 303 303 303 304 304 304 304 304 304 304 303 303 302 301 300 299 297 296 294 292 290 288 287 285 283 281 279 276 274 272 269 267 264 262 260 258 257
302 304 305 305 306 307 308 309 310 310 311 311 311 311 311 311 310 309 307 305 304 302 300 300 300 300 300 301 301 301 301 301 301 301 301 301 301 301 301 301 301 301 301 301 301 301 301 301 302 302 302 303 303 303 303 303 303 303 303 303 302 302 301 299 298 297 296 294 292 291 289 287 285 283 281 279 277 275 273 270 268 266 264 262 260 258
302 303 304 305 306 307 308 309 310 310 310 311 311 311 311 310 310 309 308 306 304 302 301 299 299 299 299 300 300 301 301 301 301 301 301 301 301 302 302 301 301 301 301 301 301 301 301 301 301 302 302 302 303 303 303 303 303 303 303 302 302 301 300 299 298 297 295 294 292 291 289 288 286 284 282 279 277 275 273 271 269 267 265 263 261 259
302 303 304 305 306 307 308 309 309 310 310 310 310 311 310 310 310 309 308 307 305 303 301 299 298 298 298 298 299 300 300 300 301 301 301 301 301 302 302 302 301 301 301 300 300 300 300 301 301 301 302 302 302 302 303 303 303 303 302 302 301 301 300 299 298 297 295 294 293 291 290 288 287 285 283 280 278 276 273 271 269 267 265 264 262 261
302 303 304 305 306 307 308 308 309 309 310 310 310 310 310 310 310 309 308 307 305 304 302 300 298 297 297 297 297 298 299 300 300 300 301 301 301 301 302 302 301 301 300 300 300 300 300 300 301 301 301 302 302 302 302 302 302 302 302 302 301 301 300 299 298 297 296 294 293 292 290 289 287 286 284 282 279 277 275 272 270 268 266 264 262 261
302 303 304 305 306 307 307 308 308 309 309 309 310 310 310 310 310 309 308 307 306 304 302 300 298 297 296 296 296 297 298 299 299 300 300 301 301 301 301 301 301 300 300 300 300 300 300 300 300 301 301 301 302 302 302 302 302 302 302 301 301 300 300 299 298 297 296 295 294 292 291 290 288 286 285 283 281 278 276 273 271 269 266 265 263 261
301 302 303 304 305 306 307 307 308 309 309 309 309 309 309 310 310 309 308 307 306 305 303 301 299 297 296 295 295 296 297 297 298 299 299 300 300 300 301 301 300 300 299 300 300 300 300 300 300 300 301 301 301 301 302 302 302 301 301 301 300 300 299 299 298 297 296 295 294 293 292 290 289 287 286 283 281 279 277 274 272 270 268 266 264 262
301 302 303 304 305 306 306 307 308 308 309 309 309 309 309 309 309 309 308 307 306 305 303 301 299 297 296 295 294 295 295 296 297 298 299 299 300 300 300 300 300 299 299 299 299 299 299 299 300 300 300 301 301 301 301 301 301 301 301 300 300 299 299 298 298 297 296 295 294 293 292 291 290 288 286 284 282 280 278 275 273 271 268 267 265 263
301 302 303 304 305 305 306 307 307 308 308 308 309 309 309 309 309 308 308 307 306 304 303 301 300 298 296 295 294 294 294 295 296 297 298 298 299 299 300 299 299 299 299 299 299 299 299 299 299 300 300 300 300 300 301 301 300 300 300 300 300 299 299 298 298 297 296 295 295 294 293 292 290 289 287 285 283 281 279 276 274 271 269 267 266 264
302 302 303 304 304 305 306 307 307 308 308 308 308 308 308 308 308 308 307 306 305 304 303 301 300 298 297 295 294 294 294 295 296 296 297 298 298 299 299 299 299 299 298 299 299 299 299 299 299 300 300 300 300 300 300 300 300 300 300 300 299 299 298 298 297 297 296 296 295 294 293 292 291 289 288 286 284 282 280 277 275 272 270 268 267 265
302 303 303 304 304 305 306 307 307 308 308 308 308 308 308 308 308 308 307 306 305 304 303 302 300 299 297 296 295 294 294 295 295 296 297 297 298 298 298 299 299 298 299 299 299 299 299 299 299 300 300 300 300 300 300 300 300 300 300 300 299 299 298 298 298 297 297 296 295 294 293 292 291 290 288 286 285 283 280 278 276 274 271 269 268 266
302 303 303 304 305 305 306 307 307 307 307 308 308 308 308 308 308 307 307 306 305 304 303 302 300 299 297 296 295 294 294 295 295 296 296 297 297 297 298 298 298 298 298 299 299 299 299 299 299 300 300 300 300 300 300 300 300 300 300 300 299 299 299 298 298 297 297 296 295 295 294 292 291 290 288 287 285 283 281 279 277 275 273 271 269 267
302 303 303 304 305 305 306 307 307 307 307 307 307 307 307 307 307 307 306 305 305 304 302 301 300 299 298 296 295 295 295 295 295 295 296 296 296 297 297 298 298 298 298 299 299 299 299 299 299 299 300 300 300 300 300 300 300 300 300 300 299 299 299 298 298 297 297 296 295 294 293 292 291 289 288 286 285 283 281 279 278 276 274 272 270 269
302 303 303 304 305 306 306 306 307 307 307 307 307 307 307 307 307 306 306 305 304 303 302 301 300 299 298 297 296 295 295 295 295 296 296 296 296 297 297 298 298 298 298 298 299 299 298 299 299 299 299 300 300 300 300 300 300 300 300 300 299 299 299 298 298 297 297 296 295 294 293 292 290 289 287 286 284 283 281 280 278 277 275 274 272 270
302 303 304 304 305 305 306 306 306 307 307 307 307 307 307 306 306 305 305 304 303 303 301 301 300 299 298 297 296 296 295 295 296 296 296 296 296 297 298 298 298 298 298 299 299 298 298 298 299 299 299 299 300 300 300 300 300 300 300 300 299 299 298 298 298 297 296 296 295 294 292 291 290 288 287 285 284 283 281 280 279 277 276 275 273 272
302 303 304 304 305 305 306 306 306 306 306 306 306 306 306 306 306 305 304 304 303 302 301 300 300 299 298 297 297 296 296 296 296 297 297 297 297 297 298 298 298 298 298 298 299 299 299 299 299 299 299 299 299 300 300 300 300 300 300 299 299 299 298 298 297 297 296 295 294 293 292 290 289 287 286 285 284 282 281 280 279 278 277 276 275 273
302 303 303 304 305 305 305 305 306 306 306 306 306 306 306 305 305 305 304 303 303 302 301 300 300 299 298 298 297 297 297 297 297 297 297 297 297 298 298 298 298 298 298 298 298 299 299 299 299 299 299 299 299 299 300 299 300 299 299 299 299 298 298 297 297 296 295 294 293 292 291 289 288 287 286 284 283 282 281 280 279 278 277 277 276 275
302 303 304 304 305 305 305 305 305 305 306 305 305 305 305 305 304 304 303 303 302 302 301 300 300 299 299 298 298 297 297 297 298 298 298 298 298 298 298 298 299 299 299 299 299 299 299 299 300 300 300 300 300 300 300 299 299 299 299 299 299 298 298 297 297 296 295 293 292 291 290 288 287 286 285 284 283 282 281 280 280 279 278 277 277 276
302 303 304 304 304 305 305 305 305 305 305 305 305 305 305 305 304 304 303 302 302 301 301 300 300 299 299 299 298 298 298 298 298 298 299 299 299 299 299 299 299 299 299 299 299 299 299 300 300 300 300 300 300 300 300 300 299 299 299 299 298 298 298 297 296 295 294 293 292 290 289 288 286 285 284 284 283 282 281 281 280 279 279 278 278 278
302 303 303 304 304 305 305 305 305 305 305 305 305 305 305 304 304 303 303 302 302 301 301 300 300 300 299 299 299 299 298 299 299 299 299 299 299 299 299 299 299 300 300 300 300 300 300 300 300 300 300 300 300 300 300 300 299 299 299 298 298 298 297 296 296 295 294 292 291 290 288 287 286 285 284 283 283 282 281 281 280 280 280 279 279 279
302 303 303 304 304 304 304 305 305 305 305 305 305 305 304 304 304 303 303 302 302 301 301 300 300 300 299 299 299 299 299 299 300 300 300 300 300 300 300 300 300 300 300 300 300 300 301 301 301 301 301 301 301 300 300 300 299 299 299 298 298 297 296 296 295 294 293 292 291 290 288 287 286 285 284 283 283 282 282 281 281 281 281 280 280 280
302 303 303 303 304 304 304 304 304 304 304 304 304 304 304 304 303 303 302 302 302 301 301 301 300 300 300 300 300 300 300 300 300 300 300 300 300 300 300 300 300 300 301 301 301 301 301 301 301 301 301 301 300 300 300 300 299 299 298 298 297 296 295 295 294 293 292 291 291 289 288 287 286 285 284 284 283 283 282 282 282 282 282 281 281 280
302 303 303 303 303 304 304 304 304 304 304 304 304 304 303 303 303 302 302 302 301 301 301 301 301 300 300 300 300 300 300 300 300 301 300 301 300 301 301 301 301 301 301 301 301 301 301 301 301 301 301 301 300 300 300 299 299 299 298 297 296 295 295 294 293 292 292 291 290 290 289 288 287 286 285 284 284 284 283 283 283 283 282 282 282 281
302 303 303 303 303 303 303 303 303 303 303 303 303 303 303 303 302 302 302 302 301 301 301 301 301 301 301 301 301 301 301 301 301 301 301 301 301 301 301 301 301 301 301 301 301 301 301 301 301 301 301 300 300 299 299 299 298 298 298 297 296 295 294 293 292 292 291 291 290 289 289 288 287 286 286 285 285 285 285 284 284 284 283 283 282 281
302 302 302 302 302 303 303 303 303 303 303 303 303 303 302 302 302 302 301 301 301 301 301 301 301 301 301 301 301 301 301 301 301 301 301 301 301 301 301 301 301 301 301 301 301 301 301 301 301 301 300 300 299 299 299 298 298 297 297 296 295 294 294 293 292 291 291 290 290 289 289 288 288 287 287 286 286 286 286 286 285 285 284 283 282 281
302 302 302 302 302 302 302 302 302 302 303 303 302 302 302 302 302 302 301 301 301 301 301 301 301 301 301 301 301 301 301 301 301 301 301 301 301 301 301 301 301 301 301 301 301 301 301 301 301 300 300 299 299 298 298 298 297 297 296 295 295 294 293 293 292 291 291 290 289 289 288 288 288 288 287 287 287 287 287 287 286 285 285 283 282 280
302 302 302 302 302 302 302 302 302 302 302 302 302 302 302 302 301 301 301 301 301 301 301 301 301 301 301 301 301 301 301 301 301 301 301 301 301 301 301 301 301 301 301 301 301 301 301 301 300 300 299 299 298 298 297 297 297 296 295 295 294 294 293 293 292 291 290 290 289 289 288 288 288 288 288 288 288 288 288 287 287 286 285 283 281 280
301 301 301 301 302 302 302 302 302 302 302 302 301 301 301 301 301 301 301 301 301 301 301 302 302 302 301 301 301 301 301 301 301 301 301 301 301 301 301 301 301 301 302 302 301 301 301 300 300 299 299 298 298 297 297 297 296 296 295 294 294 294 293 293 292 291 290 289 289 288 288 288 288 288 288 288 288 288 288 288 287 286 284 282 281 279
301 301 301 301 301 301 302 301 302 301 301 301 301 301 301 301 301 301 301 301 301 301 301 302 302 302 301 301 301 301 301 301 301 301 301 301 301 301 301 302 302 302 302 302 302 302 301 300 300 299 298 298 297 297 296 296 296 295 295 295 294 294 293 293 293 292 291 289 289 288 288 288 288 288 288 288 288 288 288 287 286 285 284 282 280 279
300 300 301 301 301 301 301 301 301 301 301 301 301 301 301 301 301 301 301 301 301 301 302 302 302 302 301 302 302 302 302 302 302 302 302 302 302 302 302 302 302 302 302 302 302 301 301 300 300 299 298 297 297 296 296 296 296 295 295 295 294 294 294 293 293 292 291 290 289 288 288 288 288 288 288 288 288 288 287 286 286 284 283 281 281 280
300 300 300 301 301 301 301 301 301 300 300 300 300 300 300 301 301 301 301 301 301 301 302 302 302 302 302 302 302 302 302 302 302 302 302 302 302 302 302 303 303 303 303 302 302 301 301 300 299 299 298 297 297 296 296 296 295 295 295 295 295 294 294 293 292 291 291 290 289 288 288 288 288 288 288 288 287 287 286 286 285 284 282 282 281 281
300 300 300 300 300 300 300 300 300 300 300 300 300 300 300 301 301 301 301 301 301 301 302 302 302 302 302 302 302 302 302 302 302 302 302 302 302 303 303 303 303 303 302 302 302 301 300 299 299 298 298 297 297 296 296 296 296 295 295 295 295 294 294 293 292 291 290 290 289 289 289 288 288 288 288 287 286 286 285 284 283 283 282 282 282 282
300 300 300 300 300 300 300 300 300 300 300 300 300 300 300 301 301 301 301 301 301 301 302 302 302 302 302 302 302 302 302 302 302 302 302 303 303 303 303 303 303 303 302 302 301 300 300 299 298 298 297 297 297 296 296 296 295 295 296 296 295 295 294 293 292 291 290 290 289 289 289 289 288 288 287 286 285 284 284 283 282 282 282 282 282 283
299 299 299 299 299 299 299 299 299 300 300 300 300 300 301 301 301 301 301 301 301 302 302 302 302 302 302 302 302 302 302 302 302 302 302 303 303 303 303 303 303 302 302 301 300 300 299 298 297 297 297 297 296 296 296 296 296 296 296 296 295 295 294 293 292 291 290 290 290 289 289 288 288 287 286 284 284 283 282 282 281 281 281 282 283 284
299 299 299 299 299 299 299 299 299 300 300 300 300 301 301 301 301 301 301 302 302 302 302 302 302 302 303 303 303 302 302 302 302 302 303 303 303 303 303 303 303 302 301 301 300 299 299 298 297 296 296 296 296 296 296 296 296 296 296 296 296 295 294 293 292 291 291 290 290 289 289 288 287 285 284 283 282 282 281 281 280 281 281 282 283 284
299 299 299 299 299 299 299 299 300 300 300 300 301 301 301 301 301 301 301 302 302 302 302 303 303 303 303 303 303 302 302 302 303 303 303 303 303 303 303 302 302 301 301 300 300 299 298 298 297 296 296 296 296 296 296 296 296 296 296 296 296 295 294 293 292 292 291 291 290 289 288 287 285 284 283 282 281 281 281 280 281 281 282 283 284 285
Height
10539 10536 10534 10532 10529 10526 10524 10522 10520 10517 10514 10512 10511 10509 10506 10504 10502 10500 10498 10496 10494 10492 10491 10488 10486 10484 10482 10481 10479 10477 10476 10474 10472 10470 10469 10467 10466 10464 10462 10461 10459 10457 10456 10454 10452 10451 10449 10447 10446 10444 10442 10441 10439 10438 10437 10436 10434 10432 10431 10429 10427 10426 10425 10423 10422 10421 10420 10419 10419 10418 10419 10419 10419 10420 10420 10421 10421 10422 10422 10423 10424 10425 10426 10427 10428 10429
10535 10532 10529 10527 10525 10522 10519 10517 10516 10514 10511 10508 10506 10504 10502 10500 10498 10496 10494 10492 10491 10489 10487 10485 10483 10481 10479 10477 10476 10474 10472 10470 10469 10467 10465 10464 10462 10461 10459 10458 10456 10455 10454 10452 10450 10449 10447 10446 10444 10442 10440 10439 10437 10436 10434 10433 10432 10431 10429 10427 10426 10424 10423 10422 10421 10421 10419 10419 10418 10418 10418 10419 10419 10419 10419 10420 10420 10421 10421 10422 10422 10423 10424 10425 10426 10427
10531 10527 10525 10522 10521 10518 10515 10512 10511 10509 10507 10504 10502 10500 10498 10496 10494 10492 10491 10489 10487 10486 10484 10482 10480 10477 10476 10474 10472 10471 10469 10467 10466 10464 10462 10461 10459 10457 10456 10455 10454 10452 10451 10449 10448 10446 10445 10443 10441 10440 10438 10436 10434 10433 10432 10431 10429 10428 10427 10426 10424 10422 10422 10421 10420 10419 10419 10418 10418 10417 10417 10417 10418 10418 10418 10419 10419 10419 10420 10420 10421 10421 10422 10422 10423 10424
10526 10524 10521 10518 10516 10514 10511 10509 10506 10504 10502 10500 10498 10496 10494 10492 10491 10489 10487 10486 10484 10482 10481 10479 10477 10475 10472 10471 10469 10467 10466 10464 10462 10461 10459 10457 10456 10454 10453 10452 10451 10449 10448 10447 10445 10444 10442 10441 10439 10437 10436 10434 10432 10430 10429 10427 10426 10426 10424 10423 10422 10421 10420 10419 10419 10418 10417 10417 10417 10417 10416 10416 10416 10417 10417 10417 10417 10418 10418 10419 10419 10419 10420 10420 10421 10421
10522 10519 10517 10514 10511 10509 10507 10505 10502 10500 10498 10496 10494 10492 10490 10488 10486 10485 10483 10482 10481 10479 10477 10475 10473 10471 10469 10468 10466 10464 10463 10461 10459 10457 10456 10454 10453 10451 10450 10448 10447 10446 10444 10443 10442 10441 10440 10439 10437 10435 10433 10431 10429 10427 10426 10424 10424 10422 10422 10421 10420 10419 10418 10417 10417 10416 10416 10416 10416 10416 10415 10415 10415 10415 10415 10416 10416 10416 10416 10417 10417 10417 10417 10418 10419 10419
10517 10516 10513 10511 10507 10505 10502 10501 10498 10496 10494 10491 10489 10488 10486 10484 10482 10481 10479 10478 10476 10475 10473 10472 10470 10468 10466 10464 10463 10461 10459 10458 10456 10454 10452 10451 10449 10448 10446 10445 10443 10442 10441 10439 10439 10437 10436 10435 10434 10432 10431 10429 10427 10425 10424 10422 10421 10419 10419 10418 10417 10417 10416 10416 10415 10414 10414 10414 10414 10414 10414 10413 10413 10413 10413 10413 10414 10414 10414 10414 10415 10415 10416 10416 10416 10416
10513 10511 10509 10507 10504 10501 10499 10497 10494 10492 10490 10487 10486 10484 10482 10481 10479 10477 10475 10474 10472 10471 10469 10468 10466 10464 10463 10461 10459 10457 10456 10454 10452 10451 10449 10447 10446 10444 10442 10441 10439 10438 10437 10436 10434 10434 10432 10431 10431 10429 10427 10426 10424 10423 10421 10419 10418 10417 10416 10415 10414 10414 10414 10413 10412 10412 10412 10411 10411 10411 10411 10411 10411 10411 10411 10411 10411 10411 10411 10411 10412 10412 10412 10413 10413 10414
10509 10507 10505 10503 10500 10497 10495 10493 10491 10489 10487 10484 10482 10479 10477 10476 10474 10473 10471 10470 10469 10467 10466 10464 10462 10461 10459 10457 10456 10454 10452 10451 10449 10447 10446 10444 10442 10441 10439 10437 10436 10434 10433 10432 10431 10430 10429 10427 10427 10426 10424 10423 10422 10421 10419 10417 10416 10414 10413 10412 10411 10411 10411 10410 10410 10409 10409 10409 10409 10409 10409 10409 10409 10409 10408 10408 10408 10408 10408 10409 10409 10409 10409 10409 10410 10411
10506 10503 10501 10499 10497 10494 10491 10488 10487 10486 10483 10481 10478 10476 10474 10471 10470 10468 10467 10466 10464 10463 10462 10460 10458 10456 10455 10454 10452 10451 10449 10447 10446 10444 10442 10441 10439 10437 10436 10434 10432 10431 10429 10428 10427 10426 10425 10424 10423 10422 10421 10420 10419 10417 10416 10414 10413 10412 10411 10409 10408 10407 10407 10406 10406 10406 10406 10406 10406 10406 10406 10406 10406 10406 10406 10406 10405 10405 10405 10405 10406 10406 10406 10406 10406 10407
10502 10499 10497 10495 10493 10491 10489 10485 10482 10481 10480 10477 10475 10473 10471 10469 10466 10464 10462 10461 10460 10459 10458 10456 10454 10452 10451 10450 10449 10447 10445 10444 10442 10441 10439 10437 10436 10434 10432 10431 10429 10427 10426 10424 10423 10422 10421 10420 10419 10418 10417 10416 10415 10414 10412 10411 10410 10409 10407 10406 10405 10404 10403 10402 10402 10402 10402 10402 10402 10402 10402 10402 10402 10402 10402 10402 10402 10402 10402 10402 10402 10402 10402 10402 10402 10402
10497 10495 10493 10491 10489 10487 10485 10482 10480 10477 10476 10474 10471 10469 10467 10466 10464 10461 10459 10456 10455 10454 10454 10452 10451 10449 10447 10446 10444 10443 10442 10440 10438 10437 10436 10434 10432 10431 10429 10427 10426 10424 10422 10421 10419 10418 10417 10416 10415 10414 10413 10412 10411 10410 10409 10407 10406 10406 10404 10403 10402 10401 10400 10399 10398 10398 10397 10397 10398 10398 10398 10398 10398 10398 10398 10398 10398 10398 10398 10397 10397 10397 10397 10397 10397 10398
10493 10491 10489 10487 10485 10482 10481 10479 10476 10474 10472 10470 10467 10465 10462 10461 10460 10458 10456 10453 10451 10450 10449 10447 10446 10445 10444 10442 10440 10439 10437 10436 10434 10432 10431 10430 10429 10427 10425 10423 10422 10420 10419 10417 10416 10414 10413 10412 10411 10410 10409 10408 10407 10406 10405 10404 10402 10402 10401 10399 10398 10397 10396 10396 10394 10394 10394 10393 10393 10393 10393 10393 10394 10394 10394 10394 10394 10394 10393 10393 10393 10393 10393 10393 10393 10393
10489 10487 10485 10482 10481 10479 10477 10474 10472 10470 10468 10466 10464 10461 10459 10457 10456 10454 10452 10450 10448 10446 10444 10442 10441 10440 10439 10438 10436 10434 10433 10431 10430 10429 10427 10426 10425 10423 10422 10420 10418 10416 10415 10413 10412 10411 10409 10408 10407 10406 10406 10404 10404 10402 10401 10401 10399 10398 10397 10396 10394 10393 10392 10392 10391 10390 10389 10389 10388 10388 10388 10388 10388 10388 10389 10389 10389 10389 10389 10389 10388 10388 10388 10388 10388 10388
10484 10482 10481 10478 10476 10474 10472 10471 10468 10466 10464 10462 10460 10457 10455 10453 10451 10449 10447 10446 10444 10442 10441 10439 10437 10435 10434 10433 10432 10431 10429 10427 10425 10424 10423 10422 10421 10419 10418 10416 10414 10412 10411 10409 10408 10407 10406 10404 10403 10402 10401 10401 10400 10399 10397 10397 10396 10394 10393 10392 10391 10389 10389 10387 10387 10386 10386 10385 10384 10384 10383 10383 10382 10382 10382 10383 10383 10383 10383 10383 10383 10383 10383 10383 10383 10383
10480 10478 10476 10474 10472 10470 10468 10466 10464 10462 10459 10457 10456 10454 10451 10449 10447 10445 10443 10441 10439 10438 10437 10435 10432 10431 10429 10429 10427 10426 10425 10422 10421 10419 10418 10417 10417 10416 10414 10412 10410 10409 10407 10406 10404 10402 10401 10400 10399 10398 10397 10396 10396 10394 10394 10392 10391 10390 10389 10387 10386 10386 10384 10384 10382 10382 10381 10381 10380 10379 10379 10378 10377 10377 10377 10377 10377 10377 10377 10377 10377 10377 10377 10377 10377 10377
10476 10474 10472 10469 10467 10466 10464 10462 10460 10457 10455 10453 10451 10449 10447 10444 10442 10441 10439 10437 10435 10433 10432 10430 10428 10426 10424 10424 10423 10422 10421 10418 10416 10415 10414 10412 10412 10411 10410 10408 10406 10404 10403 10402 10400 10398 10397 10396 10394 10394 10392 10392 10391 10390 10389 10388 10387 10386 10384 10383 10382 10381 10380 10379 10378 10377 10376 10376 10375 10374 10374 10373 10372 10372 10371 10371 10371 10371 10371 10371 10371 10371 10371 10371 10371 10371
10472 10469 10467 10465 10463 10461 10459 10457 10456 10454 10451 10449 10447 10445 10443 10441 10439 10436 10434 10432 10431 10429 10427 10426 10424 10422 10420 10418 10417 10417 10416 10414 10412 10410 10409 10407 10407 10406 10405 10403 10401 10399 10398 10397 10396 10394 10392 10391 10390 10389 10387 10387 10386 10385 10384 10383 10382 10381 10379 10378 10377 10376 10375 10374 10373 10372 10371 10371 10370 10369 10369 10368 10367 10367 10366 10366 10365 10364 10364 10364 10364 10364 10364 10364 10364 10364
10467 10466 10463 10461 10459 10457 10455 10453 10451 10449 10447 10445 10442 10440 10438 10436 10434 10432 10430 10428 10426 10424 10422 10421 10420 10418 10416 10414 10412 10412 10412 10409 10407 10405 10404 10402 10402 10401 10401 10399 10396 10394 10393 10392 10391 10389 10387 10386 10385 10384 10382 10382 10381 10380 10379 10377 10377 10376 10374 10373 10372 10371 10370 10369 10367 10367 10366 10365 10364 10363 10362 10362 10361 10361 10360 10359 10359 10359 10358 10357 10357 10357 10357 10357 10357 10357
10462 10461 10459 10457 10454 10452 10450 10449 10447 10444 10442 10441 10438 10436 10434 10432 10430 10428 10426 10424 10422 10420 10418 10416 10415 10414 10412 10410 10408 10407 10406 10405 10402 10401 10399 10398 10397 10396 10396 10394 10392 10389 10388 10387 10386 10384 10382 10381 10379 10379 10377 10377 10376 10374 10374 10372 10371 10370 10369 10367 10366 10365 10364 10363 10362 10361 10360 10359 10358 10357 10357 10356 10355 10354 10354 10353 10352 10352 10351 10351 10351 10350 10350 10350 10350 10350
10458 10456 10455 10453 10451 10448 10446 10444 10442 10441 10438 10436 10434 10432 10429 10427 10425 10423 10421 10419 10417 10416 10414 10412 10410 10409 10407 10406 10404 10402 10402 10400 10397 10396 10394 10393 10392 10391 10391 10389 10387 10384 10383 10382 10381 10379 10377 10376 10374 10373 10372 10371 10370 10369 10368 10367 10366 10364 10362 10361 10361 10359 10358 10357 10356 10355 10354 10353 10352 10351 10350 10349 10349 10347 10347 10346 10346 10345 10344 10344 10343 10343 10342 10342 10342 10342
10454 10452 10450 10449 10447 10444 10441 10439 10437 10436 10434 10432 10429 10427 10424 10422 10421 10418 10416 10414 10412 10411 10409 10407 10406 10404 10402 10401 10399 10398 10397 10396 10393 10391 10389 10388 10387 10386 10386 10384 10382 10380 10378 10377 10376 10374 10372 10371 10369 10368 10367 10366 10365 10364 10362 10361 10359 10358 10357 10356 10354 10353 10352 10351 10349 10348 10347 10346 10346 10344 10344 10342 10342 10341 10340 10339 10338 10337 10337 10336 10336 10335 10335 10334 10334 10334
10450 10447 10446 10444 10442 10440 10437 10435 10433 10431 10429 10427 10424 10422 10420 10418 10416 10413 10411 10409 10407 10406 10404 10402 10401 10399 10397 10396 10394 10393 10392 10391 10389 10386 10384 10382 10381 10381 10381 10379 10377 10375 10373 10372 10371 10369 10367 10366 10364 10363 10362 10361 10359 10358 10357 10355 10354 10352 10351 10349 10348 10347 10346 10344 10343 10342 10341 10339 10338 10337 10336 10336 10334 10334 10332 10332 10331 10330 10329 10329 10328 10327 10327 10327 10326 10326
10446 10444 10442 10440 10438 10436 10434 10431 10429 10426 10424 10422 10420 10417 10416 10414 10411 10409 10406 10404 10402 10400 10399 10397 10395 10394 10392 10391 10389 10388 10387 10386 10384 10382 10380 10378 10376 10376 10376 10374 10372 10370 10369 10367 10366 10364 10362 10361 10359 10358 10356 10355 10354 10352 10351 10349 10348 10346 10345 10344 10342 10341 10339 10338 10337 10335 10334 10332 10331 10330 10329 10328 10327 10326 10325 10324 10323 10322 10322 10321 10321 10320 10319 10318 10318 10318
10442 10439 10437 10436 10434 10431 10429 10427 10424 10422 10419 10417 10415 10413 10411 10409 10406 10404 10402 10399 10397 10396 10393 10391 10390 10388 10387 10386 10384 10383 10382 10381 10379 10377 10375 10373 10371 10370 10370 10369 10367 10365 10363 10362 10361 10359 10357 10356 10354 10352 10351 10350 10349 10347 10346 10344 10342 10341 10339 10337 10336 10334 10333 10331 10330 10329 10327 10326 10324 10323 10322 10321 10319 10318 10317 10316 10316 10314 10314 10313 10312 10312 10311 10311 10310 10310
10437 10435 10433 10431 10429 10427 10424 10422 10420 10417 10415 10412 10410 10407 10405 10403 10401 10399 10397 10394 10392 10390 10388 10386 10384 10382 10381 10380 10379 10377 10376 10376 10375 10373 10371 10368 10366 10364 10364 10363 10362 10359 10357 10357 10356 10354 10352 10350 10349 10347 10346 10344 10342 10341 10339 10338 10336 10334 10333 10331 10330 10328 10326 10325 10323 10322 10320 10319 10317 10316 10314 10313 10312 10311 10309 10308 10307 10306 10306 10305 10305 10304 10304 10303 10302 10302
10432 10430 10428 10426 10424 10422 10419 10417 10415 10412 10410 10407 10405 10402 10400 10397 10395 10393 10391 10389 10387 10384 10382 10381 10379 10377 10376 10375 10373 10372 10371 10371 10370 10368 10366 10363 10361 10359 10358 10358 10356 10354 10352 10351 10350 10349 10347 10344 10343 10342 10340 10338 10336 10335 10333 10331 10330 10328 10326 10324 10323 10321 10320 10318 10316 10315 10313 10311 10310 10308 10307 10306 10304 10302 10301 10301 10299 10299 10298 10297 10297 10296 10296 10296 10295 10294
10427 10425 10422 10421 10418 10416 10414 10412 10409 10407 10404 10402 10399 10397 10395 10392 10390 10387 10385 10383 10382 10379 10377 10375 10373 10371 10370 10369 10367 10366 10366 10365 10364 10363 10362 10359 10356 10354 10353 10352 10351 10349 10346 10345 10344 10343 10341 10339 10337 10336 10334 10332 10330 10329 10327 10325 10323 10321 10319 10317 10316 10314 10312 10311 10309 10307 10306 10304 10302 10301 10299 10298 10296 10295 10294 10292 10292 10291 10290 10289 10289 10289 10288 10287 10287 10287
10421 10419 10417 10415 10413 10411 10409 10406 10404 10401 10399 10396 10394 10392 10389 10387 10384 10382 10379 10378 10376 10374 10372 10370 10368 10366 10364 10364 10362 10361 10361 10359 10358 10357 10356 10354 10351 10349 10348 10347 10346 10344 10342 10339 10338 10337 10336 10334 10332 10330 10328 10326 10324 10322 10320 10318 10316 10314 10312 10311 10309 10307 10306 10304 10302 10301 10299 10297 10296 10294 10292 10291 10289 10288 10287 10286 10284 10284 10282 10282 10281 10281 10281 10280 10279 10279
10416 10414 10412 10410 10407 10405 10403 10401 10398 10396 10393 10391 10388 10386 10384 10382 10379 10376 10374 10372 10371 10369 10366 10365 10363 10362 10360 10358 10357 10356 10355 10354 10353 10352 10351 10349 10346 10344 10343 10342 10340 10338 10337 10334 10332 10331 10330 10329 10327 10325 10322 10321 10318 10316 10314 10311 10309 10307 10306 10304 10302 10300 10299 10297 10295 10293 10292 10290 10288 10287 10285 10284 10282 10281 10279 10278 10277 10276 10276 10275 10274 10274 10273 10272 10272 10271
10411 10409 10406 10404 10402 10400 10397 10395 10392 10390 10387 10386 10383 10381 10378 10376 10374 10371 10369 10367 10366 10363 10361 10359 10358 10357 10355 10353 10351 10350 10349 10348 10348 10347 10346 10342 10340 10338 10337 10336 10334 10333 10332 10329 10326 10324 10322 10322 10321 10320 10317 10315 10312 10311 10308 10306 10303 10301 10299 10296 10295 10293 10291 10290 10288 10286 10285 10283 10281 10280 10278 10277 10275 10274 10272 10271 10271 10269 10269 10268 10267 10267 10266 10265 10264 10264
10406 10403 10401 10399 10397 10394 10392 10389 10387 10384 10382 10380 10377 10375 10372 10371 10368 10366 10364 10362 10360 10358 10356 10354 10352 10351 10350 10348 10346 10344 10342 10342 10342 10342 10341 10337 10334 10333 10332 10330 10328 10327 10326 10324 10321 10317 10315 10314 10314 10314 10312 10309 10307 10305 10302 10300 10297 10294 10292 10289 10287 10286 10284 10282 10281 10279 10278 10276 10275 10273 10272 10270 10269 10267 10266 10265 10264 10263 10262 10261 10261 10260 10259 10258 10257 10257
10400 10397 10396 10393 10391 10389 10386 10384 10381 10379 10377 10374 10372 10369 10367 10365 10363 10361 10359 10357 10355 10353 10351 10349 10347 10346 10344 10343 10341 10339 10337 10336 10336 10336 10334 10332 10329 10327 10327 10325 10322 10320 10319 10318 10316 10312 10309 10307 10306 10305 10304 10302 10301 10299 10297 10294 10292 10289 10286 10283 10281 10278 10277 10276 10274 10272 10271 10270 10268 10267 10265 10264 10262 10261 10260 10259 10257 10256 10256 10254 10254 10253 10252 10252 10251 10250
10394 10392 10390 10387 10385 10382 10380 10378 10376 10373 10371 10369 10366 10364 10362 10360 10357 10356 10354 10352 10350 10348 10346 10344 10342 10341 10339 10338 10336 10334 10333 10331 10330 10329 10328 10326 10323 10321 10320 10319 10316 10314 10312 10311 10309 10307 10304 10301 10299 10297 10296 10295 10293 10291 10289 10288 10286 10283 10281 10277 10274 10272 10270 10268 10267 10266 10264 10263 10262 10261 10259 10257 10256 10255 10254 10252 10251 10250 10249 10248 10247 10247 10246 10246 10244 10244
10389 10387 10384 10382 10379 10376 10374 10371 10369 10367 10364 10362 10360 10358 10356 10354 10352 10350 10348 10346 10345 10343 10341 10339 10337 10336 10334 10332 10331 10329 10327 10326 10325 10324 10322 10320 10317 10315 10314 10312 10310 10308 10306 10304 10302 10300 10297 10296 10293 10291 10287 10286 10285 10284 10282 10281 10279 10277 10274 10272 10269 10266 10263 10262 10260 10258 10257 10256 10255 10254 10253 10252 10251 10249 10247 10246 10245 10244 10243 10242 10241 10241 10240 10239 10239 10238
10384 10382 10379 10376 10374 10371 10368 10366 10363 10361 10359 10356 10354 10352 10351 10349 10347 10345 10343 10341 10339 10337 10336 10334 10333 10331 10329 10327 10325 10323 10321 10321 10319 10318 10316 10314 10312 10309 10307 10306 10304 10302 10299 10297 10295 10293 10291 10288 10286 10284 10281 10278 10276 10276 10275 10274 10272 10269 10267 10266 10263 10261 10258 10256 10254 10252 10251 10249 10249 10247 10247 10246 10244 10243 10242 10241 10239 10238 10237 10236 10236 10235 10234 10234 10233 10232
10379 10377 10374 10371 10368 10365 10362 10360 10357 10355 10353 10351 10349 10347 10345 10343 10341 10339 10337 10336 10334 10332 10331 10329 10327 10326 10324 10322 10320 10317 10316 10314 10313 10312 10310 10308 10306 10303 10301 10299 10297 10296 10293 10290 10288 10286 10284 10281 10279 10277 10275 10272 10269 10267 10267 10266 10265 10263 10261 10259 10257 10255 10252 10251 10248 10246 10244 10243 10242 10241 10240 10239 10238 10237 10236 10234 10233 10232 10231 10231 10230 10229 10229 10228 10227 10226
10374 10371 10368 10366 10363 10360 10357 10354 10352 10350 10347 10346 10343 10342 10340 10338 10336 10334 10332 10331 10329 10327 10325 10323 10322 10320 10319 10317 10315 10313 10311 10309 10307 10306 10304 10302 10300 10297 10294 10292 10291 10289 10287 10284 10281 10279 10277 10274 10271 10269 10267 10266 10263 10261 10259 10258 10257 10256 10254 10252 10251 10249 10247 10245 10243 10241 10239 10237 10236 10234 10233 10232 10231 10230 10229 10228 10227 10226 10226 10225 10224 10224 10223 10222 10221 10221
10368 10365 10362 10360 10357 10355 10352 10349 10347 10345 10342 10341 10338 10336 10334 10332 10331 10329 10327 10325 10323 10322 10320 10317 10316 10314 10312 10311 10309 10307 10305 10303 10301 10299 10297 10296 10294 10291 10289 10286 10284 10282 10281 10278 10275 10272 10270 10267 10265 10262 10259 10257 10256 10254 10252 10251 10250 10249 10247 10246 10245 10243 10242 10240 10238 10236 10234 10232 10230 10228 10227 10226 10224 10223 10222 10222 10221 10220 10219 10219 10219 10218 10217 10216 10216 10214
10362 10359 10357 10354 10352 10349 10347 10344 10342 10340 10337 10336 10334 10331 10329 10327 10326 10324 10322 10320 10318 10316 10314 10312 10311 10309 10307 10305 10303 10301 10299 10297 10296 10294 10291 10289 10287 10286 10283 10280 10277 10275 10274 10272 10269 10267 10264 10261 10259 10256 10253 10251 10248 10247 10246 10245 10244 10242 10241 10239 10239 10237 10237 10235 10233 10231 10229 10227 10224 10222 10221 10219 10218 10216 10216 10215 10214 10214 10214 10213 10213 10212 10211 10211 10209 10209
10356 10354 10351 10349 10346 10344 10341 10339 10337 10335 10332 10331 10328 10326 10324 10322 10320 10318 10316 10314 10313 10311 10309 10307 10305 10303 10301 10299 10297 10295 10293 10291 10289 10287 10286 10284 10281 10279 10277 10274 10271 10269 10267 10265 10262 10261 10258 10255 10252 10249 10247 10245 10242 10240 10239 10239 10237 10237 10235 10233 10232 10231 10231 10230 10228 10226 10224 10222 10219 10217 10214 10213 10211 10210 10209 10208 10208 10207 10207 10207 10207 10206 10206 10205 10204 10203
10350 10347 10345 10342 10341 10338 10336 10334 10332 10329 10327 10325 10323 10321 10319 10317 10314 10312 10311 10309 10307 10306 10304 10302 10299 10297 10296 10294 10292 10290 10287 10285 10283 10281 10279 10277 10275 10273 10271 10269 10266 10263 10261 10258 10256 10254 10252 10249 10246 10243 10241 10239 10237 10234 10233 10232 10232 10231 10229 10227 10226 10225 10224 10224 10222 10221 10219 10216 10214 10212 10209 10207 10206 10204 10202 10202 10202 10201 10201 10201 10201 10200 10199 10199 10198 10197
10344 10341 10339 10337 10334 10332 10331 10329 10326 10324 10322 10320 10317 10315 10313 10311 10309 10307 10305 10303 10301 10299 10297 10296 10294 10291 10289 10287 10286 10284 10282 10279 10277 10275 10273 10271 10269 10267 10264 10262 10260 10257 10255 10252 10249 10247 10245 10242 10240 10237 10234 10233 10231 10229 10227 10226 10226 10226 10224 10222 10221 10219 10218 10218 10217 10216 10213 10211 10209 10207 10204 10202 10200 10198 10197 10196 10196 10196 10195 10195 10195 10194 10194 10193 10192 10192
10338 10336 10334 10331 10329 10327 10325 10323 10321 10319 10317 10314 10312 10310 10308 10306 10304 10302 10299 10297 10296 10294 10292 10290 10288 10286 10283 10281 10279 10277 10276 10274 10271 10269 10267 10264 10262 10260 10258 10256 10253 10251 10249 10246 10242 10239 10237 10236 10234 10231 10229 10227 10225 10223 10221 10221 10220 10219 10219 10217 10216 10214 10212 10211 10211 10211 10208 10206 10204 10201 10199 10197 10195 10193 10192 10191 10190 10189 10189 10189 10189 10189 10188 10188 10187 10186
10332 10330 10328 10326 10324 10322 10319 10317 10315 10313 10311 10309 10306 10304 10302 10301 10299 10296 10294 10292 10290 10288 10286 10284 10282 10280 10277 10275 10272 10271 10269 10267 10265 10262 10261 10258 10256 10254 10251 10249 10246 10244 10242 10239 10236 10233 10230 10228 10226 10225 10223 10221 10219 10217 10216 10215 10214 10213 10212 10212 10211 10209 10207 10206 10204 10204 10202 10200 10198 10196 10194 10192 10190 10188 10186 10186 10184 10184 10184 10184 10183 10183 10183 10182 10182 10181
10327 10325 10322 10321 10319 10316 10314 10312 10309 10307 10306 10303 10301 10299 10297 10295 10293 10291 10289 10286 10284 10282 10281 10279 10276 10274 10271 10269 10267 10265 10262 10260 10258 10256 10254 10251 10249 10247 10244 10242 10240 10237 10235 10232 10230 10227 10224 10221 10219 10218 10217 10216 10214 10212 10211 10210 10209 10207 10207 10206 10205 10204 10202 10201 10199 10197 10196 10194 10192 10191 10189 10187 10185 10183 10182 10181 10179 10179 10179 10179 10178 10178 10178 10177 10177 10176
10322 10320 10317 10316 10313 10311 10309 10306 10304 10302 10300 10297 10296 10294 10292 10290 10287 10286 10284 10281 10279 10277 10274 10273 10271 10268 10265 10263 10261 10259 10256 10253 10251 10249 10247 10245 10242 10241 10238 10236 10234 10231 10228 10226 10223 10221 10219 10216 10214 10212 10210 10209 10208 10207 10206 10205 10203 10202 10201 10201 10199 10198 10197 10195 10194 10192 10190 10188 10186 10185 10184 10182 10180 10178 10177 10176 10174 10174 10174 10174 10174 10173 10173 10172 10172 10171
10317 10315 10312 10311 10308 10306 10304 10301 10299 10297 10294 10292 10290 10288 10286 10284 10282 10280 10278 10276 10274 10271 10269 10267 10265 10262 10260 10257 10256 10253 10250 10247 10244 10242 10240 10238 10236 10234 10232 10229 10227 10225 10222 10220 10217 10215 10212 10211 10209 10206 10204 10203 10201 10201 10200 10200 10199 10197 10196 10195 10194 10192 10191 10189 10188 10187 10185 10183 10181 10179 10178 10177 10175 10173 10172 10171 10170 10169 10169 10169 10169 10169 10169 10168 10167 10167
10312 10310 10307 10306 10303 10301 10298 10296 10294 10292 10289 10287 10285 10283 10281 10279 10277 10274 10272 10270 10268 10266 10264 10261 10259 10257 10254 10252 10250 10247 10245 10242 10239 10236 10234 10232 10230 10227 10226 10223 10221 10219 10216 10214 10212 10209 10207 10205 10203 10201 10200 10198 10196 10194 10194 10194 10193 10192 10191 10190 10189 10187 10186 10184 10182 10181 10179 10177 10176 10174 10172 10171 10170 10168 10167 10166 10166 10165 10165 10165 10165 10165 10164 10164 10163 10162
10307 10305 10302 10300 10298 10296 10293 10291 10289 10287 10284 10282 10279 10277 10276 10274 10272 10269 10267 10264 10262 10261 10258 10256 10253 10251 10248 10246 10244 10242 10239 10236 10233 10231 10229 10226 10224 10222 10219 10217 10215 10213 10211 10209 10206 10204 10201 10199 10197 10196 10195 10194 10191 10189 10188 10187 10187 10187 10186 10185 10184 10182 10180 10178 10177 10176 10174 10172 10171 10169 10168 10166 10165 10164 10162 10162 10161 10161 10161 10161 10161 10161 10161 10160 10159 10158
10302 10299 10297 10295 10292 10290 10288 10286 10284 10281 10279 10277 10274 10272 10270 10268 10266 10264 10262 10259 10257 10254 10252 10250 10247 10245 10242 10240 10237 10236 10233 10230 10227 10225 10222 10221 10219 10216 10214 10212 10210 10207 10205 10202 10201 10199 10196 10193 10191 10190 10190 10189 10187 10185 10183 10182 10182 10182 10181 10180 10179 10177 10175 10173 10171 10170 10169 10167 10166 10164 10163 10162 10160 10159 10158 10157 10157 10157 10157 10157 10157 10157 10157 10156 10156 10154
10296 10294 10291 10289 10287 10285 10282 10281 10279 10276 10274 10272 10269 10267 10265 10262 10260 10258 10256 10254 10251 10249 10246 10244 10242 10239 10237 10234 10231 10229 10227 10224 10222 10219 10217 10215 10213 10211 10209 10206 10204 10202 10199 10197 10195 10193 10191 10187 10185 10183 10183 10184 10183 10181 10179 10177 10177 10177 10176 10175 10174 10172 10170 10167 10166 10164 10163 10162 10161 10159 10158 10157 10156 10154 10154 10154 10153 10153 10154 10154 10154 10154 10154 10153 10152 10151